Location: Kumla
(59.1265°N, 15.1401°E)
Time: 00:55:53
(UTC+01:00)

Tiros 1 despin weight - Pass Details

Date: 08 December 2023
Orbit: 581 x 624 km, 48.2° (Epoch: 01 March)

Event Time Altitude Azimuth Distance (km) Brightness Sun altitude
Rises 17:24:44 0° 210° (SSW) 2,804 ? -16.1°
Reaches altitude 10° 17:28:11 10° 182° (S) 1,899 ? -16.5°
Maximum altitude 17:30:04 13° 156° (SSE) 1,731 ? -16.7°
Enters shadow 17:31:31 11° 135° (SE) 1,832 ? -16.9°
